Weather Roundup
Issued by NWS

Home | Current Version | Previous Version | Graphics & Text | Print | Product List | Glossary Off
Versions: 1 2 3 4 5 6 7 8 9 10 11 12 13 14 15 16 17 18 19 20 21 22 23 24 25 26 27 28 29 30 31 32 33 34 35 36 37 38 39 40 41 42 43 44 45 46 47 48 49 50

318
NZUS93 KARX 292210
HRRWXR

CURRENT HOURLY OBSERVATIONS ACROSS
MUCH OF THE UPPER MISSISSIPPI VALLEY
NATIONAL WEATHER SERVICE LA CROSSE WI
500 PM CDT THU SEP 29 2016


...SOUTHEAST MINNESOTA...


CITY           SKY/WX    TMP DP  RH WIND       PRES   REMARKS
ROCHESTER      SUNNY     69  51  52 N12       30.38S
ROCHESTER/MAYO NOT AVBL
WINONA         SUNNY     70  50  49 N7        30.36S
AUSTIN         SUNNY     70  48  46 NE9       30.36S
ALBERT LEA     SUNNY     70  45  40 N5        30.37F
DODGE CENTER   SUNNY     70  46  43 NE6       30.38S
PRESTON        SUNNY     66  50  55 NE9       30.36S
OWATONNA       SUNNY     68  48  49 NW6       30.38F
FARIBAULT      SUNNY     68  48  49 NE7       30.39F
$$

...ELSEWHERE IN MINNESOTA...


CITY           SKY/WX    TMP DP  RH WIND       PRES   REMARKS
MINNEAPOLIS    SUNNY     68  50  52 NE6       30.40F
INTNL FALLS    CLOUDY    57  48  72 E8        30.47F
DULUTH         MOSUNNY   58  48  69 E13       30.47S
RED WING       SUNNY     72  46  40 N7        30.37S
REDWOOD FALLS  SUNNY     68  47  46 NE6       30.39F
MANKATO        SUNNY     66  48  52 CALM      30.40S
WORTHINGTON    SUNNY     66  48  52 E8        30.38F
FAIRMONT       SUNNY     68  48  48 VRB6      30.38F
$$

...SOUTHWEST WISCONSIN...


CITY           SKY/WX    TMP DP  RH WIND       PRES   REMARKS
LA CROSSE      SUNNY     74  52  46 N10       30.33F
PRAIRIE DU CHI SUNNY     73  44  35 NE10G17   30.29S
BOSCOBEL       SUNNY     75  45  34 NE7G20    30.29S
LONE ROCK      SUNNY     73  48  41 NE10G18   30.29S
PLATTEVILLE    SUNNY     71  50  46 NE18G28   30.27S
FORT MC COY    SUNNY     71  51  49 N13       30.34S
CAMP DOUGLAS   SUNNY     71  50  48 NE6       30.33S
MAUSTON-NEW LI NOT AVBL
VIROQUA        FAIR      70  49  47 NE12      30.33S
WIS DELLS      SUNNY     70  43  37 NE16G25   30.30S
$$

...ELSEWHERE IN WISCONSIN...


CITY           SKY/WX    TMP DP  RH WIND       PRES   REMARKS
MILWAUKEE      CLOUDY    63  58  83 N20G29    30.27R
MADISON        MOSUNNY   70  52  52 NE21G26   30.28R
GREEN BAY      SUNNY     68  52  56 NE20      30.33F
EAU CLAIRE     SUNNY     70  50  49 N8        30.37F
BLACK RVR FLS  FAIR      72  48  42 NE6       30.35S
MEDFORD        MOSUNNY   67  51  56 N9        30.38F
WAUSAU         SUNNY     70  48  45 NE10      30.36S
WIS RAPIDS     SUNNY     72  46  39 E10       30.36S
MARSHFIELD     SUNNY     72  47  40 NE6       30.36S
RICE LAKE      MOSUNNY   69  50  50 N7        30.42S
$$

...NORTHEAST IOWA...


CITY           SKY/WX    TMP DP  RH WIND       PRES   REMARKS
WATERLOO       SUNNY     72  45  37 N13G20    30.29F
DUBUQUE        SUNNY     70  48  45 NE15G23   30.26S
DECORAH        SUNNY     68  50  52 N8G14     30.32F
MASON CITY     SUNNY     71  44  37 N10       30.36F
CHARLES CITY   SUNNY     72  45  37 N9        30.33F
OELWEIN        SUNNY     72  48  43 NE14      30.31S
$$

...ELSEWHERE IN IOWA...


CITY           SKY/WX    TMP DP  RH WIND       PRES   REMARKS
DES MOINES     SUNNY     75  46  35 NE8       30.30S
IOWA CITY      SUNNY     74  48  39 N13G23    30.25F
FORT DODGE     SUNNY     68  54  60 N6        30.35F
MARSHALLTOWN   SUNNY     73  47  39 N12       30.29F
CEDAR RAPIDS   SUNNY     73  49  42 N15       30.25F
$$

...NORTHERN ILLINOIS...


CITY           SKY/WX    TMP DP  RH WIND       PRES   REMARKS
CHICAGO-OHARE  PTSUNNY   64  57  78 NE17G23   30.20R
CHICAGO-MIDWAY PTSUNNY   66  57  72 NE18      30.18R
MOLINE         CLOUDY    73  51  46 NE16G23   30.21S
ROCKFORD       PTSUNNY   67  54  63 NE18G29   30.25S
PEORIA         CLOUDY    66  60  81 NE10      30.18R
$$

NOTE: "FAIR" INDICATES FEW OR NO CLOUDS BELOW 12,000 FEET WITH NO
SIGNIFICANT WEATHER AND/OR OBSTRUCTIONS TO VISIBILITY. WIND
SPEEDS ARE IN MILES-PER-HOUR.




USA.gov is the U.S. government's official web portal to all federal, state and local government web resources and services.